Skip Page Navigation
NASA JPL Caltech
NASA Logo - Jet Propulsion Laboratory + View the NASA Portal
+ Near-Earth Object (NEO) Program
Search JPL
JPL Home Earth Solar System Stars & Galaxies Technology
JPL Solar System Dynamics
BODIES ORBITS EPHEMERIDES TOOLS PHYSICAL DATA DISCOVERY FAQ SITE MAP
JPL Small-Body Database Browser
Search: [ help ]  
14654 Rajivgupta (1998 YV16)
Classification: Main-belt Asteroid          SPK-ID: 2014654
Ephemeris | Orbit Diagram | Orbital Elements | Physical Parameters | Discovery Circumstances | Close-Approach Data ]

[ hide orbit diagram ]
Orbit Diagram
Note: Make sure you have Java enabled on your browser to see the applet. This applet is provided as a 3D orbit visualization tool. The applet was implemented using 2-body methods, and hence should not be used for determining accurate long-term trajectories (over several years or decades) or planetary encounter circumstances. For accurate long-term ephemerides, please instead use our Horizons system.
Orbit Viewer

Additional Notes: the orbits shown in the applet are color coded. The planets are white lines, and the asteroid/comet is a blue line. The bright white line indicates the portion of the orbit that is above the ecliptic plane, and the darker portion is below the ecliptic plane. Likewise for the asteroid/comet orbit, the light blue indicates the portion above the ecliptic plane, and the dark blue the portion below the ecliptic plane.

Orbit Viewer applet originally written and kindly provided by Osamu Ajiki (AstroArts), and further modified by Ron Baalke (JPL).


Orbital Elements at Epoch 2456400.5 (2013-Apr-18.0) TDB
Reference: JPL 1 (heliocentric ecliptic J2000)
 Element Value Uncertainty (1-sigma)   Units 
e .1402096012060657 6.3008e-08  
a 3.153108002154438 4.1103e-08 AU
q 2.711011986612709 2.018e-07 AU
i 1.462065278016739 7.9324e-06 deg
node 157.9011977420849 0.00026605 deg
peri 263.4902080786831 0.00026736 deg
M 241.4519300530941 3.2729e-05 deg
tp 2457073.939651883076
(2015-Feb-20.43965188)
0.0001929 JED
period 2045.063026217874
5.60
3.9988e-05
1.095e-07
d
yr
n .1760336945046538 3.442e-09 deg/d
Q 3.595204017696166 4.6866e-08 AU
  Orbit Determination Parameters
   # obs. used (total)      804  
   data-arc span      21185 days (58.00 yr)  
   first obs. used      1955-04-16  
   last obs. used      2013-04-16  
   planetary ephem.      DE405  
   SB-pert. ephem.      SB405-CPV-2  
   condition code      0  
   fit RMS      .55688  
   data source      ORB  
   producer      Otto Matic  
   solution date      2013-Apr-29 13:56:34  

Additional Information
 Earth MOID = 1.72362 AU 
 T_jup = 3.191 
[ show covariance matrix ]

Ephemeris | Orbit Diagram | Orbital Elements | Physical Parameters | Discovery Circumstances | Close-Approach Data ]

Physical Parameter Table
Parameter Symbol Value Units Sigma Reference Notes
absolute magnitude H 13.3 mag n/a PDS3 (MPC 39892)  

14654 Rajivgupta           Discovered 1998 Dec. 22 by Spacewatch at Kitt Peak.
Rajiv Gupta (b. 1958) is a mathematician who has been a faculty member at the University of British Columbia since 1984. He has edited the Observer's Handbook of the Royal Astronomical Society of Canada since 2001 and began a term as president of the Society in 2002.
NOTE: some special characters may not display properly (any characters within {} are an attempt to place the proper accent above a character)
Reference: 20030614/MPCPages.arcLast Updated: 2005-04-26

[ show close-approach data ]
Alternate Designations
 1998 YV16 = 1999 CO59 
Ephemeris | Orbit Diagram | Orbital Elements | Physical Parameters | Discovery Circumstances | Close-Approach Data ]
ABOUT SSD CREDITS/AWARDS PRIVACY/COPYRIGHT GLOSSARY LINKS
FirstGov 2013-May-22 03:25 UT
(server date/time)  
NASA Home Page
Site Manager:   Donald K. Yeomans
Webmaster  Alan B. Chamberlin